Location: Newark
(19.5361°N, 155.5761°W)
Time: 19:29:25
(UTC+00:00)

NOAA 15 - Visible Passes

Search period start: 10 April 2020 00:00
Search period end: 20 April 2020 00:00
Orbit: 797 x 813 km, 98.7° (Epoch: 10 April)

Date Brightness Start Highest point End Pass type
(mag) Time Alt. Az. Time Alt. Az. Time Alt. Az.
10 Apr 5.3 05:33:01 10° S 05:38:11 57° WSW 05:43:21 10° NNW visible
11 Apr 4.6 05:07:53 10° SSE 05:13:08 75° ENE 05:18:22 10° N visible
12 Apr 7.3 06:24:49 10° SW 06:27:50 15° W 06:30:51 10° WNW visible
13 Apr 6.5 05:58:08 10° SSW 06:02:41 30° W 06:07:14 10° NW visible
14 Apr 5.2 05:32:25 10° S 05:37:35 58° WSW 05:42:44 10° NNW visible
15 Apr 4.6 05:07:17 10° SSE 05:12:32 73° ENE 05:17:45 10° N visible
16 Apr 7.3 06:24:09 10° SW 06:27:14 16° W 06:30:18 10° WNW visible
17 Apr 6.4 05:57:30 10° SSW 06:02:05 30° W 06:06:39 10° NW visible
18 Apr 5.2 05:31:49 10° S 05:36:58 59° WSW 05:42:08 10° NNW visible
19 Apr 4.6 05:06:42 10° SSE 05:11:56 72° ENE 05:17:08 10° N visible
